VIA022 SEQM-SYCJ

Flight info

Callsign VIA022
Flight time N/A
Altitude 37000
Route SIMOG1B SIMOG DCT DOVKO UM662 DADKA DCT KODSI DCT PUBIT DCT KUMIX DCT VUDOK
Aircraft A333/H-SDE3GHIJ2J3J5M1RVWXY/LB2D1

Departure

Time N/A
Airport Mariscal Sucre International Airport (SEQM)

Arrival

Time 2026-04-16 08:56
Airport Cheddi Jagan International Airport (SYCJ)
Time Latitude Longitude Altitude Speed Heading
2026-04-16 08:16 5.26912 -61.72904 37064 ft 495 kts 81°
2026-04-16 08:16 5.28152 -61.65732 37079 ft 495 kts 81°
2026-04-16 08:17 5.29369 -61.58689 37085 ft 495 kts 81°
2026-04-16 08:17 5.30619 -61.51456 37093 ft 495 kts 81°
2026-04-16 08:19 5.35516 -61.23055 37055 ft 495 kts 81°
2026-04-16 08:20 5.36748 -61.15893 37072 ft 496 kts 81°
2026-04-16 08:20 5.37969 -61.08798 37091 ft 495 kts 81°
2026-04-16 08:21 5.39215 -61.01548 37107 ft 494 kts 81°
2026-04-16 08:21 5.40434 -60.94449 37099 ft 494 kts 81°
2026-04-16 08:22 5.42126 -60.87453 37081 ft 494 kts 74°
2026-04-16 08:22 5.44123 -60.80463 37044 ft 495 kts 75°
2026-04-16 08:23 5.46130 -60.73349 37021 ft 494 kts 75°
2026-04-16 08:23 5.48112 -60.66314 37015 ft 494 kts 75°
2026-04-16 08:24 5.50116 -60.59197 37008 ft 494 kts 75°
2026-04-16 08:24 5.52093 -60.52173 37009 ft 494 kts 75°
2026-04-16 08:25 5.54094 -60.45061 37004 ft 494 kts 75°
2026-04-16 08:25 5.56079 -60.38002 37008 ft 494 kts 75°
2026-04-16 08:26 5.58023 -60.31082 37000 ft 493 kts 76°
2026-04-16 08:26 5.59996 -60.24056 37011 ft 493 kts 75°
2026-04-16 08:27 5.61949 -60.17101 37011 ft 494 kts 75°
2026-04-16 08:27 5.63952 -60.09967 37001 ft 494 kts 75°
2026-04-16 08:28 5.64951 -60.06402 36848 ft 497 kts 75°
2026-04-16 08:28 5.65939 -60.02879 36162 ft 501 kts 76°
2026-04-16 08:28 5.66917 -59.99396 35556 ft 494 kts 76°
2026-04-16 08:28 5.67914 -59.95837 34937 ft 488 kts 76°
2026-04-16 08:29 5.68892 -59.92345 34334 ft 490 kts 76°
2026-04-16 08:29 5.69882 -59.88810 33732 ft 494 kts 76°
2026-04-16 08:29 5.70869 -59.85289 33139 ft 496 kts 76°
2026-04-16 08:29 5.71874 -59.81697 32546 ft 498 kts 76°
2026-04-16 08:30 5.72879 -59.78110 32012 ft 496 kts 76°
2026-04-16 08:30 5.73846 -59.74655 31497 ft 496 kts 76°
2026-04-16 08:30 5.74863 -59.71019 30954 ft 495 kts 76°
2026-04-16 08:30 5.75840 -59.67527 30434 ft 496 kts 76°
2026-04-16 08:31 5.76862 -59.63871 29890 ft 495 kts 76°
2026-04-16 08:31 5.77824 -59.60431 29379 ft 495 kts 76°
2026-04-16 08:31 5.78822 -59.56862 28849 ft 496 kts 76°
2026-04-16 08:31 5.79805 -59.53344 28333 ft 495 kts 76°
2026-04-16 08:32 5.80731 -59.50028 27854 ft 497 kts 76°
2026-04-16 08:32 5.81665 -59.46685 27372 ft 499 kts 76°
2026-04-16 08:32 5.82633 -59.43219 26818 ft 488 kts 76°
2026-04-16 08:32 5.83541 -59.39971 26277 ft 463 kts 76°
2026-04-16 08:33 5.84413 -59.36845 25755 ft 442 kts 76°
2026-04-16 08:33 5.85301 -59.33659 25209 ft 435 kts 76°
2026-04-16 08:33 5.86122 -59.30710 24722 ft 438 kts 76°
2026-04-16 08:33 5.86941 -59.27773 24244 ft 441 kts 75°
2026-04-16 08:34 5.87774 -59.24787 23765 ft 444 kts 75°
2026-04-16 08:34 5.88603 -59.21815 23375 ft 450 kts 75°
2026-04-16 08:34 5.89404 -59.18938 22927 ft 445 kts 75°
2026-04-16 08:34 5.90202 -59.16076 22380 ft 429 kts 75°
2026-04-16 08:35 5.90967 -59.13331 21891 ft 410 kts 75°
2026-04-16 08:35 5.91675 -59.10792 21448 ft 394 kts 75°
2026-04-16 08:35 5.92389 -59.08226 20985 ft 379 kts 75°
2026-04-16 08:35 5.93030 -59.05925 20552 ft 368 kts 75°
2026-04-16 08:36 5.93662 -59.03654 20108 ft 357 kts 75°
2026-04-16 08:36 5.94264 -59.01490 19677 ft 348 kts 75°
2026-04-16 08:36 5.94899 -58.99208 19212 ft 341 kts 76°
2026-04-16 08:36 5.95550 -58.96865 18736 ft 337 kts 76°
2026-04-16 08:37 5.96218 -58.94463 18244 ft 335 kts 76°
2026-04-16 08:37 5.96813 -58.92325 17802 ft 333 kts 76°
2026-04-16 08:37 5.97418 -58.90148 17352 ft 330 kts 76°
2026-04-16 08:37 5.98049 -58.87877 16880 ft 324 kts 76°
2026-04-16 08:38 5.98687 -58.85583 16381 ft 318 kts 76°
2026-04-16 08:38 5.99268 -58.83492 15867 ft 309 kts 76°
2026-04-16 08:38 5.99761 -58.81716 15436 ft 300 kts 75°
2026-04-16 08:38 6.00309 -58.79746 14961 ft 291 kts 76°
2026-04-16 08:39 6.00786 -58.78027 14537 ft 283 kts 76°
2026-04-16 08:39 6.01297 -58.76188 14063 ft 274 kts 75°
2026-04-16 08:39 6.01806 -58.74355 13557 ft 260 kts 75°
2026-04-16 08:39 6.02259 -58.72722 13080 ft 250 kts 75°
2026-04-16 08:40 6.02683 -58.71196 12629 ft 243 kts 75°
2026-04-16 08:40 6.03111 -58.69653 12175 ft 239 kts 75°
2026-04-16 08:40 6.03540 -58.68105 11718 ft 238 kts 75°
2026-04-16 08:40 6.03944 -58.66650 11271 ft 232 kts 75°
2026-04-16 08:41 6.04344 -58.65208 10814 ft 226 kts 75°
2026-04-16 08:41 6.04744 -58.63766 10405 ft 218 kts 76°
2026-04-16 08:41 6.05109 -58.62443 10109 ft 216 kts 76°
2026-04-16 08:41 6.05474 -58.61122 9663 ft 214 kts 76°
2026-04-16 08:42 6.05845 -58.59782 9200 ft 209 kts 76°
2026-04-16 08:42 6.06239 -58.58357 8696 ft 204 kts 76°
2026-04-16 08:42 6.06615 -58.56999 8204 ft 200 kts 76°
2026-04-16 08:42 6.06960 -58.55753 7748 ft 197 kts 76°
2026-04-16 08:43 6.07295 -58.54549 7312 ft 193 kts 76°
2026-04-16 08:43 6.07890 -58.53379 6911 ft 193 kts 49°
2026-04-16 08:43 6.08932 -58.52655 6567 ft 192 kts 33°
2026-04-16 08:43 6.10015 -58.52043 6226 ft 189 kts 35°
2026-04-16 08:44 6.11088 -58.51398 5846 ft 188 kts 36°
2026-04-16 08:44 6.12127 -58.50748 5368 ft 190 kts 37°
2026-04-16 08:44 6.13187 -58.50071 4898 ft 188 kts 38°
2026-04-16 08:44 6.14177 -58.49431 4454 ft 187 kts 38°
2026-04-16 08:45 6.15201 -58.48766 3993 ft 185 kts 38°
2026-04-16 08:45 6.16193 -58.48121 3540 ft 183 kts 38°
2026-04-16 08:45 6.17209 -58.47459 3072 ft 181 kts 38°
2026-04-16 08:45 6.18215 -58.46803 2602 ft 180 kts 38°
2026-04-16 08:46 6.19189 -58.46167 2177 ft 177 kts 37°
2026-04-16 08:46 6.20141 -58.45551 1939 ft 165 kts 38°
2026-04-16 08:46 6.21012 -58.44983 1765 ft 152 kts 38°
2026-04-16 08:46 6.21819 -58.44457 1774 ft 144 kts 38°
2026-04-16 08:47 6.22562 -58.43972 1832 ft 140 kts 39°
2026-04-16 08:47 6.23353 -58.43453 1800 ft 140 kts 39°
2026-04-16 08:47 6.24172 -58.42919 1793 ft 138 kts 39°
2026-04-16 08:47 6.24925 -58.42427 1805 ft 140 kts 39°
2026-04-16 08:48 6.25810 -58.41850 1800 ft 141 kts 39°
2026-04-16 08:48 6.26617 -58.41323 1793 ft 141 kts 39°
2026-04-16 08:48 6.27379 -58.40826 1796 ft 141 kts 39°
2026-04-16 08:48 6.28125 -58.40340 1805 ft 141 kts 38°
2026-04-16 08:49 6.28866 -58.39856 1798 ft 141 kts 38°
2026-04-16 08:49 6.29605 -58.39381 1800 ft 140 kts 38°
2026-04-16 08:49 6.30346 -58.38901 1805 ft 139 kts 37°
2026-04-16 08:49 6.31168 -58.38368 1808 ft 141 kts 37°
2026-04-16 08:50 6.31985 -58.37838 1801 ft 140 kts 37°
2026-04-16 08:50 6.32747 -58.37344 1802 ft 141 kts 38°
2026-04-16 08:50 6.33526 -58.36835 1792 ft 139 kts 37°
2026-04-16 08:50 6.34331 -58.36337 1790 ft 141 kts 30°
2026-04-16 08:51 6.35281 -58.36133 1813 ft 143 kts 16°
2026-04-16 08:51 6.36090 -58.35776 1806 ft 139 kts 39°
2026-04-16 08:51 6.36863 -58.35309 1800 ft 140 kts 33°
2026-04-16 08:51 6.37578 -58.34947 1801 ft 140 kts 31°
2026-04-16 08:52 6.38342 -58.34582 1804 ft 141 kts 30°
2026-04-16 08:52 6.39171 -58.34202 1808 ft 141 kts 29°
2026-04-16 08:52 6.39980 -58.33841 1805 ft 140 kts 29°
2026-04-16 08:52 6.40844 -58.33456 1803 ft 141 kts 30°
2026-04-16 08:53 6.41692 -58.33087 1843 ft 143 kts 27°
2026-04-16 08:53 6.42558 -58.32706 1690 ft 142 kts 34°
2026-04-16 08:53 6.43209 -58.32095 1529 ft 129 kts 55°
2026-04-16 08:53 6.43757 -58.31470 1377 ft 127 kts 50°
2026-04-16 08:54 6.44343 -58.30871 1230 ft 127 kts 49°
2026-04-16 08:54 6.44942 -58.30268 1087 ft 129 kts 48°
2026-04-16 08:54 6.45561 -58.29653 934 ft 129 kts 49°
2026-04-16 08:54 6.46161 -58.29047 779 ft 130 kts 51°
2026-04-16 08:55 6.46843 -58.28378 609 ft 131 kts 47°
2026-04-16 08:55 6.47457 -58.27780 448 ft 132 kts 47°
2026-04-16 08:55 6.48085 -58.27186 305 ft 133 kts 48°
2026-04-16 08:55 6.48734 -58.26531 119 ft 134 kts 45°
2026-04-16 08:56 6.49368 -58.25903 105 ft 117 kts 45°
2026-04-16 08:56 6.49817 -58.25454 106 ft 61 kts 44°
2026-04-16 08:56 6.50039 -58.25234 105 ft 49 kts 45°
2026-04-16 08:56 6.50217 -58.25053 102 ft 20 kts 30°
2026-04-16 08:57 6.50293 -58.25069 101 ft 13 kts 317°
2026-04-16 08:57 6.50296 -58.25073 101 ft 0 kts 315°
2026-04-16 08:58 6.50303 -58.25079 101 ft 7 kts 315°
2026-04-16 08:58 6.50317 -58.25093 101 ft 0 kts 314°
2026-04-16 08:58 6.50343 -58.25126 101 ft 11 kts 290°
2026-04-16 08:58 6.50319 -58.25182 102 ft 5 kts 234°
2026-04-16 08:59 6.50321 -58.25207 102 ft 1 kts 295°
2026-04-16 08:59 6.50328 -58.25220 102 ft 1 kts 304°
2026-04-16 08:59 6.50334 -58.25227 102 ft 2 kts 309°
2026-04-16 08:59 6.50339 -58.25232 102 ft 0 kts 310°